Weather reports worldwide

Advertisment
Castellon, Spain (8286): temperature & dewpoint: 25.03.2020 03:00:00 - 31.03.2020 03:00:00 (CEST)Castellon, Spain (8286): wind speed: 25.03.2020 03:00:00 - 31.03.2020 03:00:00 (CEST)Castellon, Spain (8286): wind direction: 25.03.2020 03:00:00 - 31.03.2020 03:00:00 (CEST)Castellon, Spain (8286): reduced air pressure: 25.03.2020 03:00:00 - 31.03.2020 03:00:00 (CEST)Castellon, Spain (8286): visibility: 25.03.2020 03:00:00 - 31.03.2020 03:00:00 (CEST)Castellon, Spain (8286): precipitation: 25.03.2020 03:00:00 - 31.03.2020 03:00:00 (CEST)
Date & Time tt [°C] td [°C] ff [km/h] ff [kn] dd ppp [hPa] vv [km] rr [mm]
31.03.2020 03:00:00 6,8 5,6 8 4 NW 1013,0 7 2,0
31.03.2020 02:00:00 6,9 5,4 5 3 NW 1013,5 14 -
31.03.2020 01:00:00 7,3 5,4 8 4 WNW 1014,1 7 0,2
31.03.2020 00:00:00 7,4 4,9 5 3 NNW 1014,3 16 0,4
30.03.2020 23:00:00 7,9 4,7 5 3 NNW 1014,6 20 -
30.03.2020 22:00:00 8,0 4,8 8 4 N 1014,8 10 0,4
30.03.2020 21:00:00 8,4 4,2 5 3 NNW 1014,6 14 0,4
30.03.2020 20:00:00 10,1 2,0 8 4 NNW 1013,9 20 -
30.03.2020 19:00:00 10,8 2,4 9 5 N 1013,5 20 0,0
30.03.2020 18:00:00 11,2 3,0 5 3 N 1013,6 20 0,0
30.03.2020 17:00:00 10,8 3,8 5 3 NNW 1013,8 20 -
30.03.2020 16:00:00 10,5 4,6 9 5 NNW 1014,0 20 0,2
30.03.2020 15:00:00 9,7 5,1 11 6 N 1014,3 15 0,4
30.03.2020 14:00:00 10,0 4,8 11 6 N 1014,7 16 -
30.03.2020 13:00:00 12,2 2,6 8 4 N 1014,5 19 0,0
30.03.2020 12:00:00 13,1 2,9 13 7 N 1014,3 20 0,0
30.03.2020 11:00:00 14,3 2,2 8 4 NNE 1014,1 20 -
30.03.2020 10:00:00 13,5 3,0 5 3 NNE 1013,8 20 0,0
30.03.2020 09:00:00 12,5 3,4 2 1 NE 1013,4 20 0,0
30.03.2020 08:00:00 12,8 2,3 8 4 N 1012,7 20 -
30.03.2020 07:00:00 11,9 3,1 5 3 WNW 1012,3 20 0,0
30.03.2020 06:00:00 12,0 3,7 5 3 WNW 1012,2 20 0,0
30.03.2020 05:00:00 12,5 2,9 5 3 WNW 1012,3 20 -
30.03.2020 04:00:00 12,6 3,3 9 5 WNW 1012,5 16 0,0
30.03.2020 03:00:00 12,2 4,4 8 4 WNW 1012,8 20 0,0
30.03.2020 02:00:00 12,7 4,4 5 3 WNW 1013,1 20 -
30.03.2020 01:00:00 12,7 5,4 2 1 W 1013,6 20 0,0
30.03.2020 00:00:00 12,8 5,7 2 1 N 1013,7 20 0,0
29.03.2020 23:00:00 13,7 6,8 4 2 NW 1013,8 20 -
29.03.2020 22:00:00 15,5 7,0 4 2 WNW 1013,7 20 0,0
29.03.2020 21:00:00 16,1 7,3 2 1 NNE 1013,4 20 0,0
29.03.2020 20:00:00 16,6 7,8 4 2 ENE 1013,2 20 -
29.03.2020 19:00:00 17,2 7,8 4 2 SSE 1013,1 20 0,0
29.03.2020 18:00:00 19,2 8,8 9 5 SSE 1013,2 20 0,0
29.03.2020 17:00:00 21,0 4,9 16 9 S 1012,9 20 -
29.03.2020 16:00:00 22,3 4,8 15 8 S 1013,5 20 0,0
29.03.2020 15:00:00 22,8 5,2 18 10 S 1014,2 20 0,0
29.03.2020 14:00:00 21,8 6,1 11 6 SSE 1015,0 20 -
29.03.2020 13:00:00 21,4 5,3 11 6 SSE 1015,7 20 0,0
29.03.2020 12:00:00 20,2 2,5 5 3 WSW 1016,3 20 0,0
29.03.2020 11:00:00 16,4 2,4 8 4 W 1016,7 20 -
29.03.2020 10:00:00 12,8 4,0 9 5 WNW 1016,9 20 0,0
29.03.2020 09:00:00 9,8 3,3 11 6 WNW 1016,9 20 0,0
29.03.2020 08:00:00 9,0 3,2 13 7 WNW 1016,7 20 -
29.03.2020 07:00:00 9,1 3,3 11 6 WNW 1016,6 20 0,0
29.03.2020 06:00:00 9,0 3,6 13 7 WNW 1016,8 20 0,0
29.03.2020 05:00:00 9,6 4,2 13 7 W 1017,2 20 -
29.03.2020 04:00:00 9,6 4,4 13 7 WNW 1017,6 20 0,0
29.03.2020 03:00:00 9,6 4,8 13 7 WNW 1018,3 20 0,0
29.03.2020 02:00:00 9,5 5,1 11 6 WNW 1018,7 20 -
29.03.2020 01:00:00 9,7 5,5 11 6 WNW 1019,1 20 0,0
29.03.2020 00:00:00 10,1 5,7 11 6 WNW 1019,2 20 0,0
28.03.2020 23:00:00 10,8 6,0 8 4 WNW 1019,1 20 -
28.03.2020 22:00:00 12,1 5,9 4 2 WNW 1019,0 20 0,0
28.03.2020 21:00:00 13,2 5,6 4 2 SSW 1018,4 20 0,0
28.03.2020 20:00:00 14,8 4,8 5 3 S 1017,9 20 -
28.03.2020 19:00:00 15,7 4,4 4 2 SE 1017,6 20 0,0
28.03.2020 18:00:00 16,2 4,2 13 7 ESE 1017,3 20 0,0
28.03.2020 17:00:00 16,8 3,8 13 7 ESE 1017,3 20 -
28.03.2020 16:00:00 17,4 3,3 11 6 E 1017,6 20 0,0
28.03.2020 15:00:00 17,8 3,3 11 6 E 1017,8 20 0,0
28.03.2020 14:00:00 17,6 2,7 9 5 E 1018,1 20 -
28.03.2020 13:00:00 17,0 2,9 11 6 ESE 1018,3 20 0,0
28.03.2020 12:00:00 16,1 3,8 8 4 ESE 1018,3 20 0,0
28.03.2020 11:00:00 12,7 4,4 5 3 WNW 1018,4 20 -
28.03.2020 10:00:00 10,9 2,7 8 4 WNW 1017,9 20 0,0
28.03.2020 09:00:00 9,4 1,8 11 6 W 1017,6 20 0,0
28.03.2020 08:00:00 8,8 1,5 15 8 W 1017,2 20 -
28.03.2020 07:00:00 8,1 1,5 11 6 WNW 1017,0 20 0,0
28.03.2020 06:00:00 7,6 1,4 13 7 WNW 1017,1 20 0,0
28.03.2020 05:00:00 6,9 1,8 11 6 WNW 1017,2 20 -
28.03.2020 04:00:00 6,0 2,6 11 6 WNW 1017,4 19 0,0
28.03.2020 03:00:00 6,2 3,0 11 6 WNW 1017,5 19 0,0
28.03.2020 02:00:00 6,5 3,3 8 4 WNW 1017,3 17 -
28.03.2020 01:00:00 7,1 3,5 11 6 WNW 1017,0 20 0,0
28.03.2020 00:00:00 7,9 4,3 9 5 WNW 1016,7 19 0,0
27.03.2020 23:00:00 8,3 4,5 5 3 WNW 1016,3 19 -
27.03.2020 22:00:00 9,7 4,7 4 2 WNW 1015,9 20 0,0
27.03.2020 21:00:00 10,7 2,8 0 0 N 1015,3 20 0,0
27.03.2020 20:00:00 12,0 2,4 5 3 ESE 1014,9 20 -
27.03.2020 19:00:00 12,8 3,7 8 4 ESE 1014,4 20 0,0
27.03.2020 18:00:00 13,1 4,5 11 6 ESE 1014,1 20 0,0
27.03.2020 17:00:00 14,0 3,7 13 7 ESE 1014,1 20 -
27.03.2020 16:00:00 14,5 3,9 13 7 ESE 1014,3 20 0,0
27.03.2020 15:00:00 14,5 4,5 15 8 ESE 1014,5 20 0,0
27.03.2020 14:00:00 14,3 4,6 13 7 E 1014,6 20 -
27.03.2020 13:00:00 13,8 4,9 11 6 E 1014,7 18 0,0
27.03.2020 12:00:00 12,1 3,8 9 5 E 1014,6 19 0,0
27.03.2020 11:00:00 11,6 3,6 9 5 NNE 1014,5 20 -
27.03.2020 10:00:00 10,5 4,2 4 2 NE 1014,1 20 0,0
27.03.2020 09:00:00 9,3 4,1 4 2 N 1013,6 20 0,0
27.03.2020 08:00:00 8,6 4,0 4 2 NW 1013,4 20 -
27.03.2020 07:00:00 8,1 4,1 4 2 N 1012,6 20 0,0
27.03.2020 06:00:00 7,6 4,4 8 4 NW 1012,9 20 0,0
27.03.2020 05:00:00 7,8 4,4 11 6 W 1013,3 20 -
27.03.2020 04:00:00 8,3 3,9 9 5 N 1013,3 20 0,0
27.03.2020 03:00:00 8,3 4,1 15 8 NNE 1013,2 20 0,0
27.03.2020 02:00:00 8,4 3,8 13 7 NNE 1013,0 20 -
27.03.2020 01:00:00 8,5 3,7 15 8 NNE 1013,0 20 0,0
27.03.2020 00:00:00 8,3 3,1 13 7 NNE 1013,3 20 0,0
26.03.2020 23:00:00 8,8 3,6 13 7 NNE 1013,0 20 -
26.03.2020 22:00:00 9,2 4,8 11 6 N 1012,2 20 0,0
26.03.2020 21:00:00 9,9 5,5 9 5 NNE 1011,6 20 0,0
26.03.2020 20:00:00 10,6 5,6 11 6 NE 1011,0 20 -
26.03.2020 19:00:00 11,3 5,4 4 2 ENE 1009,8 19 0,0
26.03.2020 18:00:00 12,2 5,6 8 4 E 1009,0 20 0,0
26.03.2020 17:00:00 12,7 5,4 8 4 E 1008,2 19 -
26.03.2020 16:00:00 12,7 5,1 9 5 NE 1008,1 20 0,0
26.03.2020 15:00:00 13,8 5,2 9 5 E 1008,0 20 0,0
26.03.2020 14:00:00 15,0 0,0 16 9 NNE 1007,7 20 -
26.03.2020 13:00:00 14,8 0,2 15 8 NNW 1007,7 20 0,0
26.03.2020 12:00:00 14,7 1,9 4 2 NNW 1007,7 20 0,0
26.03.2020 11:00:00 12,4 2,5 4 2 NW 1007,9 20 -
26.03.2020 10:00:00 9,9 3,2 5 3 NW 1008,4 20 0,0
26.03.2020 09:00:00 7,6 4,0 5 3 NW 1009,0 18 0,0
26.03.2020 08:00:00 6,9 4,2 11 6 WNW 1009,1 17 -
26.03.2020 07:00:00 6,5 4,2 8 4 WNW 1009,3 17 0,0
26.03.2020 06:00:00 6,1 4,4 8 4 WNW 1009,5 11 0,0
26.03.2020 05:00:00 5,8 4,4 8 4 NW 1010,3 10 -
26.03.2020 04:00:00 5,7 4,3 8 4 WNW 1011,2 11 0,0
26.03.2020 03:00:00 6,0 4,5 5 3 WNW 1012,3 12 0,0
26.03.2020 02:00:00 6,6 4,8 4 2 WNW 1012,8 12 -
26.03.2020 01:00:00 7,6 5,6 5 3 SW 1013,8 17 0,0
26.03.2020 00:00:00 8,4 5,9 5 3 SW 1014,8 20 0,0
25.03.2020 23:00:00 9,3 6,2 5 3 SSW 1015,4 20 -
25.03.2020 22:00:00 9,3 5,7 4 2 SSW 1016,0 20 0,0
25.03.2020 21:00:00 9,1 5,6 2 1 S 1015,8 20 0,0
25.03.2020 20:00:00 10,3 5,5 4 2 SW 1015,8 20 -
25.03.2020 19:00:00 11,4 5,3 4 2 SE 1016,1 20 0,0
25.03.2020 18:00:00 11,2 5,5 8 4 ESE 1016,5 20 0,0
25.03.2020 17:00:00 11,2 4,9 4 2 W 1016,9 20 -
25.03.2020 16:00:00 10,4 4,5 4 2 NNE 1017,3 20 0,0
25.03.2020 15:00:00 9,6 5,2 9 5 N 1017,9 20 0,0
25.03.2020 14:00:00 9,9 5,9 13 7 N 1018,3 20 -
25.03.2020 13:00:00 9,7 5,1 9 5 NNE 1018,4 17 0,2
25.03.2020 12:00:00 9,7 6,0 9 5 NNE 1018,2 20 0,2
25.03.2020 11:00:00 9,5 6,4 9 5 NNE 1018,3 14 -
25.03.2020 10:00:00 9,8 6,7 5 3 NNE 1017,9 15 0,2
25.03.2020 09:00:00 9,6 7,0 4 2 N 1017,6 15 0,0
25.03.2020 08:00:00 10,0 6,3 11 6 NNE 1017,4 20 -
25.03.2020 07:00:00 9,4 7,3 5 3 NW 1017,4 20 0,0
25.03.2020 06:00:00 9,6 7,2 5 3 NNE 1017,3 20 0,0
25.03.2020 05:00:00 9,4 7,7 8 4 NW 1017,6 20 -
25.03.2020 04:00:00 9,8 7,9 8 4 NE 1018,2 - 0,6
25.03.2020 03:00:00 - - - - - - - -

tt = temperature
td = dewpoint
ff = wind speed
dd = wind direction
ppp = reduced air pressure
vv = visibility
rr = precipitation

Next stations